Regional Weather Roundup
Issued by NWS

Home | Current Version | Previous Version | Graphics & Text | Print | Product List | Glossary On
Versions: 1 2 3 4 5 6 7 8 9 10 11 12 13 14 15 16 17 18 19 20 21 22 23 24 25 26 27 28 29 30 31 32 33 34 35 36 37 38 39 40 41 42 43 44 45 46 47 48 49 50
000
ASUS43 KDMX 300607
RWRIA

WEATHER ROUNDUP FOR IOWA
NATIONAL WEATHER SERVICE DES MOINES IA
100 AM CDT TUE JUN 30 2015

NOTE: "FAIR" INDICATES FEW OR NO CLOUDS BELOW 12,000 FEET WITH NO
SIGNIFICANT WEATHER AND/OR OBSTRUCTIONS TO VISIBILITY.

* - THESE STATIONS ARE NOT NWS STATIONS...THUS NOT UNDER NWS
QUALITY CONTROL.  THEY ALSO DO NOT REPORT WEATHER SUCH
AS PRECIPITATION OR FOG.

IAZ001>003-012>014-020>022-031>034-043>046-300700-
   NORTHWEST IOWA

CITY           SKY/WX    TMP DP  RH WIND       PRES   REMARKS
CARROLL *      CLOUDY    66  64  94 W8        29.89S
CHEROKEE *     CLOUDY    66  63  90 CALM      29.90S
DENISON *      CLOUDY    64  63  94 CALM      29.90R
LE MARS *      MOCLDY    64  63  94 CALM      29.92R
ORANGE CITY *  CLEAR     64  61  88 NW5       29.92S
SHELDON *      CLOUDY    63  63 100 NW3       29.91S FOG
SIOUX CITY     CLEAR     64  60  87 CALM      29.91S FOG
6HR MIN TEMP:  64; 6HR MAX TEMP:  82; 6HR PCP: TRACE;

SPENCER        CLOUDY    63  60  90 NW7       29.91R FOG
6HR MIN TEMP:  62; 6HR MAX TEMP:  77;

STORM LAKE *   CLEAR     66  63  88 W9        29.92R
$$

IAZ055>058-069>071-079>083-090>094-300700-
   SOUTHWEST IOWA

CITY           SKY/WX    TMP DP  RH WIND       PRES   REMARKS
ATLANTIC *     CLOUDY    64  63  94 CALM      29.92R
AUDUBON *      CLEAR     64  61  88 CALM      29.92S
CLARINDA *     CLEAR     64  64 100 CALM      29.94R
COUNCIL BLFS * CLOUDY    68  64  88 CALM      29.93S
CRESTON *      CLEAR     68  61  77 W5        29.92S
HARLAN  *      CLEAR     63  63 100 CALM      29.95S
LAMONI         CLEAR     71  62  73 W5        29.90F
6HR MIN TEMP:  69; 6HR MAX TEMP:  79;

RED OAK *      MOCLDY    66  64  94 CALM      29.92S
SHENANDOAH *     N/A     66  64  94 SW3       29.93S
$$

IAZ047>049-059>061-072>074-084-300700-
   CENTRAL IOWA

CITY           SKY/WX    TMP DP  RH WIND       PRES   REMARKS
AMES           CLEAR     67  63  87 W9        29.86S
6HR MIN TEMP:  66; 6HR MAX TEMP:  78;

ANKENY *       CLEAR     68  64  88 W9        29.86F
CHARITON *     CLOUDY    68  63  83 W6        29.89R
DES MOINES     CLOUDY    70  63  78 W5        29.86F
6HR MIN TEMP:  70; 6HR MAX TEMP:  80;

GRINNELL*      PTCLDY    67  64  89 NE9       29.87S
KNOXVILLE *    CLEAR     68  64  88 W8        29.86S
MARSHALLTOWN   CLEAR     65  63  93 CALM      29.85S
6HR MIN TEMP:  65; 6HR MAX TEMP:  76;

PELLA *        CLEAR     70  67  92 W7        29.87S
PERRY *          N/A     66  64  94 W7        29.88S
$$

IAZ004>006-015-016-023>025-035-036-300700-
   NORTH CENTRAL IOWA

CITY           SKY/WX    TMP DP  RH WIND       PRES   REMARKS
ALGONA *       PTCLDY    68  63  83 NW8       29.88S
CLARION *      CLEAR     66  63  88 CALM      29.87R
ESTHERVILLE    PTCLDY    65  61  87 NW8       29.89R
6HR MIN TEMP:  65; 6HR MAX TEMP:  77;

FORT DODGE *   CLEAR     66  61  82 CALM      29.88S
MASON CITY     CLEAR     63  58  83 SW6       29.87S
6HR MIN TEMP:  61; 6HR MAX TEMP:  77;

FOREST CITY *  CLEAR     66  63  88 NW9       29.86S
IOWA FALLS *     N/A     64  63  94 CALM      29.87F
$$

IAZ007>011-017>019-026>030-037>042-050>054-066-300700-
   NORTHEAST IOWA

CITY           SKY/WX    TMP DP  RH WIND       PRES   REMARKS
CEDAR RAPIDS   PTCLDY    61  61 100 SW3       29.84S FOG
6HR MIN TEMP:  61; 6HR MAX TEMP:  78; 6HR PCP:  0.14;

CHARLES CITY * CLEAR     61  61 100 SW5       29.85S
CLINTON *      CLOUDY    64  61  88 W5        29.83F
DECORAH *        N/A    N/A N/A N/A MISG        N/A
DUBUQUE        MOCLDY    61  60  97 S3        29.82R
6HR MIN TEMP:  61; 6HR MAX TEMP:  75; 6HR PCP:  0.75;

MONTICELLO *   PTCLDY    63 N/A N/A W3        29.83R
OELWEIN *        N/A     61  61 100 SW3       29.84F
WATERLOO       CLEAR     63  60  90 SW6       29.83F
6HR MIN TEMP:  63; 6HR MAX TEMP:  78;

$$

IAZ064-065-067-068-078-300700-
   EAST CENTRAL IOWA

CITY           SKY/WX    TMP DP  RH WIND       PRES   REMARKS
DAVENPORT      CLOUDY    65  63  93 CALM      29.81F
6HR MIN TEMP:  65; 6HR MAX TEMP:  75; 6HR PCP:  0.54;

IOWA CITY      PTCLDY    62  61  96 W5        29.84F
6HR MIN TEMP:  62; 6HR MAX TEMP:  80; 6HR PCP:  0.31;

MT. PLEASANT * PTCLDY    70  64  81 W3        29.85S
MUSCATINE *    PTCLDY    68  64  88 CALM      29.83F
QUAD CITIES    CLOUDY    66  63  90 SW5       29.81F
6HR MIN TEMP:  66; 6HR MAX TEMP:  78; 6HR PCP:  0.73;

$$

IAZ062-063-075>077-085>089-095>099-300700-
   SOUTHEAST IOWA

CITY           SKY/WX    TMP DP  RH WIND       PRES   REMARKS
BURLINGTON     PTCLDY    68  66  93 NW6       29.84S
6HR MIN TEMP:  67; 6HR MAX TEMP:  74;

FAIRFIELD *    CLEAR     68  64  88 NW6G13    29.86R
FORT MADISON * CLEAR     68  66  94 W5        29.85S
KEOKUK *       CLEAR     68  66  94 W6        29.84F
OSKALOOSA *      N/A     65  64  94 W3        29.86S
CENTERVILLE *  CLEAR     68  64  88 W7        29.90S
OTTUMWA        CLEAR     67  65  93 W7        29.84S
6HR MIN TEMP:  67; 6HR MAX TEMP:  77;

WASHINGTON *   CLEAR     66  64  94 NW5       29.87R
$$

ABBREVIATIONS USED IN REMARKS
   TC - TEMPERATURES IN CELSIUS
  WCI - WIND CHILL INDEX
   HX - HEAT INDEX
  VSB - VISIBILITY
$$



USA.gov is the U.S. government's official web portal to all federal, state and local government web resources and services.